When you browse on this site, cookies collect data to enhance your experience and personalize the content and advertising you see.
Visit our Privacy Policy to learn more. By continuing to use the site, you agree to this use of cookies and data.
  • en Suisse
  • Liste des pays
  • À 7 jours
  • Température de l'eau
  • Carte météo
  • Widgets météo
  • user-avatar
    Se connecter

    Météo par heure à Trushkino

    Ce jour, 23 Août, Vendredi

    Heure Température Précipitation Vent Pression Humidité
    00:00 +15°C° 0 mm 4 m/s 753 mmHg 89%
    01:00 +15°C° 0 mm 4 m/s 753 mmHg 89%
    02:00 +14°C° 0 mm 3 m/s 754 mmHg 90%
    03:00 +13°C° 0 mm 3 m/s 754 mmHg 89%
    04:00 +13°C° 0 mm 3 m/s 754 mmHg 90%
    05:00 +13°C° 0 mm 3 m/s 754 mmHg 91%
    06:00 +13°C° 0 mm 3 m/s 754 mmHg 91%
    07:00 +14°C° 0 mm 3 m/s 755 mmHg 87%
    08:00 +15°C° 0 mm 4 m/s 755 mmHg 83%
    09:00 +18°C° 0 mm 4 m/s 755 mmHg 79%
    10:00 +19°C° 0 mm 4 m/s 755 mmHg 74%
    11:00 +20°C° 0 mm 4 m/s 755 mmHg 69%
    12:00 +21°C° 0 mm 4 m/s 755 mmHg 63%
    13:00 +21°C° 0 mm 4 m/s 755 mmHg 62%
    14:00 +22°C° 0 mm 4 m/s 755 mmHg 61%
    15:00 +22°C° 0 mm 4 m/s 755 mmHg 60%
    16:00 +22°C° 0 mm 3 m/s 755 mmHg 63%
    17:00 +21°C° 0 mm 3 m/s 754 mmHg 67%
    18:00 +21°C° 0 mm 2 m/s 754 mmHg 71%
    19:00 +19°C° 0 mm 2 m/s 754 mmHg 74%
    20:00 +18°C° 0 mm 2 m/s 754 mmHg 77%
    21:00 +16°C° 0 mm 2 m/s 754 mmHg 80%
    22:00 +16°C° 0 mm 2 m/s 754 mmHg 81%
    23:00 +15°C° 0 mm 2 m/s 754 mmHg 82%

    Demain, 24 Août, Samedi

    Heure Température Précipitation Vent Pression Humidité
    00:00 +15°C° 0 mm 1 m/s 754 mmHg 82%
    01:00 +14°C° 0 mm 1 m/s 754 mmHg 83%
    02:00 +14°C° 0 mm 1 m/s 754 mmHg 84%
    03:00 +14°C° 0 mm 1 m/s 755 mmHg 84%
    04:00 +13°C° 0 mm 1 m/s 754 mmHg 84%
    05:00 +13°C° 0 mm 1 m/s 754 mmHg 84%
    06:00 +13°C° 0 mm 1 m/s 754 mmHg 85%
    07:00 +14°C° 0 mm 0 m/s 754 mmHg 79%
    08:00 +16°C° 0 mm 0 m/s 754 mmHg 74%
    09:00 +18°C° 0 mm 0 m/s 754 mmHg 68%
    10:00 +21°C° 0 mm 1 m/s 754 mmHg 63%
    11:00 +22°C° 0 mm 1 m/s 754 mmHg 58%
    12:00 +23°C° 0 mm 2 m/s 753 mmHg 53%
    13:00 +23°C° 0 mm 2 m/s 753 mmHg 52%
    14:00 +24°C° 0 mm 2 m/s 753 mmHg 51%
    15:00 +24°C° 0 mm 3 m/s 753 mmHg 50%
    16:00 +24°C° 0 mm 3 m/s 752 mmHg 55%
    17:00 +22°C° 0 mm 3 m/s 752 mmHg 60%
    18:00 +21°C° 0 mm 2 m/s 751 mmHg 65%
    19:00 +20°C° 0 mm 2 m/s 752 mmHg 68%
    20:00 +18°C° 0 mm 2 m/s 752 mmHg 72%
    21:00 +17°C° 0 mm 2 m/s 752 mmHg 75%
    22:00 +16°C° 0 mm 2 m/s 752 mmHg 78%
    23:00 +16°C° 0 mm 2 m/s 751 mmHg 81%

    Après-demain, 25 Août, Dimanche

    Heure Température Précipitation Vent Pression Humidité
    00:00 +14°C° 0 mm 3 m/s 751 mmHg 83%
    01:00 +14°C° 0 mm 3 m/s 751 mmHg 86%
    02:00 +14°C° 0 mm 3 m/s 751 mmHg 88%
    03:00 +14°C° 0 mm 3 m/s 751 mmHg 91%
    04:00 +15°C° 0 mm 2 m/s 751 mmHg 91%
    05:00 +15°C° 0 mm 2 m/s 751 mmHg 92%
    06:00 +15°C° 0 mm 2 m/s 751 mmHg 92%
    07:00 +16°C° 0 mm 3 m/s 751 mmHg 86%
    08:00 +17°C° 0 mm 3 m/s 751 mmHg 80%
    09:00 +19°C° 0 mm 3 m/s 752 mmHg 74%
    10:00 +20°C° 0 mm 3 m/s 752 mmHg 70%
    11:00 +21°C° 0 mm 4 m/s 752 mmHg 66%
    12:00 +21°C° 0 mm 4 m/s 752 mmHg 62%
    13:00 +22°C° 0 mm 4 m/s 752 mmHg 61%
    14:00 +22°C° 0 mm 4 m/s 752 mmHg 60%
    15:00 +22°C° 0 mm 4 m/s 752 mmHg 58%
    16:00 +21°C° 0 mm 3 m/s 753 mmHg 62%
    17:00 +21°C° 0 mm 3 m/s 753 mmHg 66%
    18:00 +20°C° 0 mm 2 m/s 753 mmHg 70%
    19:00 +19°C° 0 mm 2 m/s 753 mmHg 73%
    20:00 +17°C° 0 mm 2 m/s 753 mmHg 76%
    21:00 +16°C° 0 mm 2 m/s 754 mmHg 80%
    22:00 +15°C° 0 mm 2 m/s 754 mmHg 82%
    23:00 +14°C° 0 mm 2 m/s 754 mmHg 85%

    26 Août, Lundi

    Heure Température Précipitation Vent Pression Humidité
    00:00 +14°C° 0 mm 2 m/s 755 mmHg 87%
    01:00 +13°C° 0 mm 2 m/s 755 mmHg 88%
    02:00 +13°C° 0 mm 1 m/s 755 mmHg 89%
    03:00 +12°C° 0 mm 1 m/s 755 mmHg 90%
    04:00 +12°C° 0 mm 1 m/s 755 mmHg 90%
    05:00 +11°C° 0 mm 0 m/s 755 mmHg 89%
    06:00 +11°C° 0 mm 0 m/s 755 mmHg 89%
    07:00 +13°C° 0 mm 0 m/s 755 mmHg 83%
    08:00 +14°C° 0 mm 0 m/s 755 mmHg 77%
    09:00 +16°C° 0 mm 0 m/s 755 mmHg 71%
    10:00 +17°C° 0 mm 0 m/s 755 mmHg 66%
    11:00 +19°C° 0 mm 0 m/s 755 mmHg 61%
    12:00 +20°C° 0 mm 0 m/s 755 mmHg 55%
    13:00 +22°C° 0 mm 1 m/s 755 mmHg 54%
    14:00 +23°C° 0 mm 1 m/s 755 mmHg 52%
    15:00 +23°C° 0 mm 2 m/s 754 mmHg 50%
    16:00 +21°C° 0 mm 2 m/s 754 mmHg 54%
    17:00 +21°C° 0 mm 2 m/s 753 mmHg 58%
    18:00 +21°C° 0 mm 2 m/s 753 mmHg 62%
    19:00 +19°C° 0 mm 2 m/s 753 mmHg 66%
    20:00 +19°C° 0 mm 1 m/s 753 mmHg 69%
    21:00 +16°C° 0 mm 1 m/s 752 mmHg 73%
    22:00 +16°C° 0 mm 2 m/s 752 mmHg 74%
    23:00 +15°C° 0 mm 2 m/s 752 mmHg 76%

    27 Août, Mardi

    Heure Température Précipitation Vent Pression Humidité
    00:00 +15°C° 0 mm 2 m/s 752 mmHg 77%
    01:00 +15°C° 0 mm 2 m/s 752 mmHg 78%
    02:00 +14°C° 0 mm 2 m/s 751 mmHg 78%
    03:00 +13°C° 0 mm 3 m/s 751 mmHg 79%
    04:00 +13°C° 0 mm 3 m/s 751 mmHg 81%
    05:00 +13°C° 0 mm 3 m/s 751 mmHg 82%
    06:00 +13°C° 0 mm 3 m/s 750 mmHg 84%
    07:00 +16°C° 0 mm 3 m/s 750 mmHg 81%
    08:00 +17°C° 0 mm 4 m/s 750 mmHg 78%
    09:00 +18°C° 0 mm 4 m/s 750 mmHg 75%
    10:00 +20°C° 0 mm 4 m/s 749 mmHg 71%
    11:00 +21°C° 0 mm 5 m/s 749 mmHg 66%
    12:00 +22°C° 0 mm 5 m/s 749 mmHg 62%
    13:00 +23°C° 0.1 mm 5 m/s 749 mmHg 62%
    14:00 +23°C° 0.1 mm 6 m/s 748 mmHg 63%
    15:00 +23°C° 0.1 mm 6 m/s 748 mmHg 63%
    16:00 +22°C° 0.3 mm 5 m/s 748 mmHg 67%
    17:00 +21°C° 0.3 mm 5 m/s 748 mmHg 71%
    18:00 +20°C° 0.3 mm 4 m/s 748 mmHg 76%
    19:00 +19°C° 0.1 mm 4 m/s 748 mmHg 80%
    20:00 +17°C° 0.1 mm 4 m/s 748 mmHg 84%
    21:00 +15°C° 0.1 mm 4 m/s 749 mmHg 88%
    22:00 +14°C° 0 mm 4 m/s 749 mmHg 88%
    23:00 +13°C° 0 mm 4 m/s 750 mmHg 89%

    28 Août, Mercredi

    Heure Température Précipitation Vent Pression Humidité
    00:00 +12°C° 0 mm 4 m/s 750 mmHg 89%
    01:00 +11°C° 0 mm 4 m/s 750 mmHg 89%
    02:00 +10°C° 0 mm 4 m/s 751 mmHg 89%
    03:00 +8°C° 0 mm 4 m/s 751 mmHg 89%
    04:00 +7°C° 0 mm 4 m/s 751 mmHg 88%
    05:00 +7°C° 0 mm 3 m/s 752 mmHg 87%
    06:00 +7°C° 0 mm 3 m/s 752 mmHg 85%
    07:00 +7°C° 0 mm 4 m/s 752 mmHg 79%
    08:00 +8°C° 0 mm 4 m/s 753 mmHg 73%
    09:00 +9°C° 0 mm 5 m/s 753 mmHg 67%
    10:00 +10°C° 0 mm 5 m/s 753 mmHg 63%
    11:00 +12°C° 0 mm 5 m/s 753 mmHg 59%
    12:00 +13°C° 0 mm 5 m/s 753 mmHg 56%
    13:00 +14°C° 0 mm 5 m/s 753 mmHg 54%
    14:00 +14°C° 0 mm 5 m/s 753 mmHg 53%
    15:00 +15°C° 0 mm 5 m/s 752 mmHg 52%
    16:00 +15°C° 0 mm 4 m/s 752 mmHg 55%
    17:00 +14°C° 0 mm 4 m/s 752 mmHg 59%
    18:00 +14°C° 0 mm 3 m/s 752 mmHg 63%
    19:00 +13°C° 0 mm 3 m/s 753 mmHg 65%
    20:00 +11°C° 0 mm 3 m/s 753 mmHg 67%
    21:00 +10°C° 0 mm 3 m/s 753 mmHg 70%
    22:00 +9°C° 0 mm 3 m/s 753 mmHg 71%
    23:00 +9°C° 0 mm 3 m/s 754 mmHg 72%
    Voir plus